Location: Curicchi
(45.0167°N, 12.0500°E)
Time: 02:58:12
(UTC+00:00)

ARIANE 5 R/B - Pass Details

Date: 07 June 2020
Orbit: 748 x 796 km, 98.6° (Epoch: 06 July)

Event Time Altitude Azimuth Distance (km) Brightness Sun altitude
Rises 01:13:23 0° 23° (NNE) 3,218 7.5 -16.7°
Reaches altitude 10° 01:15:58 10° 35° (NE) 2,283 6.3 -16.4°
Maximum altitude 01:20:20 30° 95° (E) 1,338 4.0 -16.0°
Drops below altitude 10° 01:24:40 10° 156° (SSE) 2,260 4.6 -15.6°
Enters shadow 01:25:03 - 158° (SSE) 2,392 4.7 -15.6°
